| time (UTC) | temp C | wind direction | speed KPH | gust KPH | rain 1hr cm | rain 24hr cm | rain mn cm | humidity % | barometer mb |
| 20260508043015 | 5 | 114 | 0.0 | 0.0 | 0.00 | 1.70 | 0.00 | 99 | 1001.8 |
| 20260508041514 | 5 | 114 | 0.0 | 3.2 | 0.00 | 1.70 | 0.00 | 99 | 1001.7 |
| 20260508040021 | 5 | 91 | 3.2 | 11.3 | 0.00 | 1.70 | 0.00 | 99 | 1002.1 |
| 20260508034512 | 5 | 116 | 0.0 | 0.0 | 0.00 | 1.70 | 0.00 | 99 | 1001.9 |
| 20260508033010 | 5 | 116 | 0.0 | 1.6 | 0.00 | 1.70 | 0.00 | 99 | 1002.0 |
| 20260508031508 | 5 | 116 | 0.0 | 0.0 | 0.00 | 1.70 | 0.00 | 99 | 1001.9 |
| 20260508030006 | 5 | 116 | 0.0 | 0.0 | 0.00 | 1.70 | 1.70 | 99 | 1002.1 |
| 20260508024506 | 5 | 116 | 0.0 | 0.0 | 0.00 | 1.70 | 1.70 | 99 | 1002.4 |
| 20260508023007 | 6 | 116 | 0.0 | 3.2 | 0.00 | 1.70 | 1.70 | 99 | 1002.0 |
| 20260508021503 | 6 | 118 | 3.2 | 9.7 | 0.00 | 1.70 | 1.70 | 98 | 1002.3 |
| 20260508020004 | 7 | 41 | 0.0 | 1.6 | 0.00 | 1.70 | 1.70 | 99 | 1001.9 |
| 20260508014505 | 7 | 134 | 0.0 | 3.2 | 0.00 | 1.70 | 1.70 | 99 | 1001.8 |
| 20260508013003 | 7 | 135 | 0.0 | 0.0 | 0.00 | 1.70 | 1.70 | 100 | 1001.6 |
| 20260508011502 | 7 | 135 | 0.0 | 0.0 | 0.00 | 1.70 | 1.70 | 99 | 1001.6 |
| 20260508010003 | 7 | 177 | 0.0 | 3.2 | 0.00 | 1.70 | 1.70 | 100 | 1001.6 |
| 20260508004503 | 7 | 104 | 0.0 | 9.7 | 0.00 | 1.70 | 1.70 | 99 | 1001.9 |
| 20260508003003 | 7 | 160 | 1.6 | 3.2 | 0.00 | 1.70 | 1.70 | 100 | 1001.9 |
| 20260508001601 | 7 | 122 | 0.0 | 1.6 | 0.00 | 1.70 | 1.70 | 99 | 1001.7 |
| 20260507234602 | 7 | 129 | 0.0 | 0.0 | 0.00 | 1.70 | 1.70 | 99 | 1001.3 |
| 20260507233058 | 7 | 129 | 0.0 | 1.6 | 0.00 | 1.70 | 1.70 | 99 | 1001.4 |
| 20260507231600 | 6 | 129 | 0.0 | 1.6 | 0.00 | 1.70 | 1.70 | 99 | 1001.6 |
| 20260507230100 | 7 | 129 | 0.0 | 4.8 | 0.00 | 1.70 | 1.70 | 98 | 1001.5 |
| 20260507224616 | 7 | 129 | 0.0 | 3.2 | 0.00 | 1.70 | 1.70 | 98 | 1001.5 |
| 20260507223100 | 7 | 118 | 0.0 | 9.7 | 0.00 | 1.70 | 1.70 | 98 | 1001.5 |
| 20260507221556 | 7 | 120 | 0.0 | 9.7 | 0.00 | 1.70 | 1.70 | 99 | 1001.6 |
| 20260507220058 | 8 | 123 | 4.8 | 17.7 | 0.03 | 1.70 | 1.70 | 98 | 1002.0 |
| 20260507214602 | 9 | 163 | 1.6 | 12.9 | 0.05 | 1.70 | 1.70 | 99 | 1001.6 |
| 20260507213054 | 9 | 109 | 1.6 | 11.3 | 0.15 | 1.70 | 1.70 | 100 | 1002.1 |
| 20260507211618 | 7 | 42 | 0.0 | 8.0 | 0.33 | 1.70 | 1.70 | 99 | 1001.4 |
| 20260507210054 | 7 | 146 | 6.4 | 14.5 | 0.48 | 1.68 | 1.68 | 97 | 1001.8 |
| 20260507204600 | 10 | 124 | 6.4 | 14.5 | 0.66 | 1.65 | 1.65 | 99 | 1001.7 |
| 20260507203048 | 9 | 81 | 3.2 | 8.0 | 0.69 | 1.52 | 1.52 | 100 | 1002.3 |
| 20260507201557 | 8 | 133 | 0.0 | 12.9 | 0.64 | 1.37 | 1.37 | 99 | 1002.7 |
| 20260507200056 | 7 | 98 | 1.6 | 9.7 | 0.56 | 1.19 | 1.19 | 98 | 1002.9 |
| 20260507194542 | 7 | 75 | 0.0 | 4.8 | 0.61 | 0.99 | 0.99 | 99 | 1003.7 |
| 20260507193041 | 7 | 75 | 0.0 | 3.2 | 0.64 | 0.84 | 0.84 | 98 | 1004.0 |
| 20260507191548 | 6 | 72 | 0.0 | 6.4 | 0.66 | 0.71 | 0.71 | 98 | 1003.8 |
| 20260507190039 | 6 | 115 | 4.8 | 9.7 | 0.56 | 0.61 | 0.61 | 96 | 1004.1 |
| 20260507184537 | 7 | 109 | 3.2 | 11.3 | 0.33 | 0.41 | 0.41 | 96 | 1004.6 |
| 20260507183036 | 8 | 120 | 1.6 | 16.1 | 0.15 | 0.20 | 0.20 | 96 | 1004.4 |
| 20260507181534 | 8 | 62 | 4.8 | 14.5 | 0.00 | 0.05 | 0.05 | 96 | 1004.7 |
| 20260507180042 | 8 | 116 | 3.2 | 11.3 | 0.00 | 0.05 | 0.05 | 97 | 1004.3 |
| 20260507174535 | 8 | 209 | 6.4 | 19.3 | 0.00 | 0.05 | 0.05 | 95 | 1004.3 |
| 20260507173034 | 9 | 137 | 1.6 | 19.3 | 0.00 | 0.05 | 0.05 | 96 | 1004.5 |
| 20260507171531 | 9 | 140 | 8.0 | 24.1 | 0.00 | 0.05 | 0.05 | 96 | 1004.9 |
| 20260507170031 | 9 | 86 | 8.0 | 17.7 | 0.00 | 0.05 | 0.05 | 95 | 1004.8 |
| 20260507164530 | 9 | 130 | 6.4 | 19.3 | 0.00 | 0.05 | 0.05 | 95 | 1004.9 |
| 20260507163027 | 9 | 123 | 6.4 | 17.7 | 0.00 | 0.05 | 0.05 | 95 | 1005.3 |
| 20260507161524 | 9 | 120 | 9.7 | 19.3 | 0.00 | 0.05 | 0.05 | 95 | 1006.1 |
| 20260507160024 | 9 | 202 | 8.0 | 19.3 | 0.00 | 0.05 | 0.05 | 94 | 1006.3 |
| 20260507154522 | 10 | 193 | 6.4 | 19.3 | 0.00 | 0.05 | 0.05 | 96 | 1006.6 |
| 20260507153027 | 9 | 121 | 8.0 | 16.1 | 0.00 | 0.05 | 0.05 | 96 | 1006.6 |
| 20260507151519 | 9 | 110 | 6.4 | 20.9 | 0.00 | 0.05 | 0.05 | 95 | 1006.9 |
| 20260507150017 | 10 | 96 | 8.0 | 22.5 | 0.00 | 0.05 | 0.05 | 95 | 1007.2 |
| 20260507144515 | 10 | 193 | 4.8 | 20.9 | 0.00 | 0.05 | 0.05 | 97 | 1007.5 |
| 20260507143014 | 10 | 112 | 4.8 | 19.3 | 0.00 | 0.05 | 0.05 | 97 | 1007.8 |
| 20260507141513 | 10 | 152 | 4.8 | 17.7 | 0.00 | 0.05 | 0.05 | 98 | 1008.1 |
| 20260507140023 | 10 | 102 | 4.8 | 22.5 | 0.00 | 0.05 | 0.05 | 98 | 1008.0 |
| 20260507134511 | 9 | 74 | 8.0 | 19.3 | 0.00 | 0.05 | 0.05 | 99 | 1008.0 |
| 20260507133010 | 9 | 121 | 6.4 | 19.3 | 0.00 | 0.05 | 0.05 | 98 | 1008.1 |
| 20260507131510 | 10 | 113 | 9.7 | 20.9 | 0.00 | 0.05 | 0.05 | 98 | 1008.1 |
| 20260507130007 | 9 | 341 | 3.2 | 16.1 | 0.03 | 0.05 | 0.05 | 99 | 1008.5 |
| 20260507124512 | 8 | 117 | 8.0 | 16.1 | 0.05 | 0.05 | 0.05 | 99 | 1008.8 |
| 20260507123004 | 8 | 164 | 3.2 | 19.3 | 0.05 | 0.05 | 0.05 | 99 | 1008.6 |
| 20260507121503 | 8 | 69 | 8.0 | 19.3 | 0.05 | 0.05 | 0.05 | 99 | 1009.3 |
| 20260507120001 | 9 | 85 | 4.8 | 14.5 | 0.05 | 0.05 | 0.05 | 99 | 1009.5 |
| 20260507114600 | 8 | 163 | 3.2 | 17.7 | 0.00 | 0.00 | 0.00 | 100 | 1010.0 |
| 20260507113059 | 7 | 93 | 4.8 | 17.7 | 0.00 | 0.00 | 0.00 | 99 | 1010.4 |
| 20260507111559 | 7 | 158 | 6.4 | 16.1 | 0.00 | 0.00 | 0.00 | 99 | 1010.5 |
| 20260507110100 | 7 | 69 | 8.0 | 19.3 | 0.00 | 0.00 | 0.00 | 98 | 1010.5 |
| 20260507104556 | 7 | 79 | 6.4 | 14.5 | 0.00 | 0.00 | 0.00 | 100 | 1010.4 |
| 20260507103056 | 6 | 86 | 3.2 | 12.9 | 0.00 | 0.00 | 0.00 | 99 | 1010.8 |
| 20260507101604 | 6 | 169 | 1.6 | 14.5 | 0.00 | 0.00 | 0.00 | 98 | 1010.9 |
| 20260507100052 | 6 | 136 | 4.8 | 16.1 | 0.00 | 0.00 | 0.00 | 98 | 1011.7 |
| 20260507094559 | 7 | 94 | 6.4 | 14.5 | 0.00 | 0.00 | 0.00 | 99 | 1012.0 |
| 20260507093049 | 6 | 149 | 3.2 | 14.5 | 0.00 | 0.00 | 0.00 | 98 | 1012.4 |
| 20260507091600 | 6 | 156 | 1.6 | 9.7 | 0.00 | 0.00 | 0.00 | 98 | 1012.2 |
| 20260507090109 | 6 | 148 | 3.2 | 12.9 | 0.00 | 0.00 | 0.00 | 98 | 1012.2 |
| 20260507084549 | 7 | 109 | 3.2 | 14.5 | 0.00 | 0.00 | 0.00 | 98 | 1011.6 |
| 20260507083046 | 7 | 110 | 3.2 | 9.7 | 0.00 | 0.00 | 0.00 | 98 | 1012.2 |
| 20260507081553 | 6 | 153 | 0.0 | 6.4 | 0.00 | 0.00 | 0.00 | 98 | 1012.3 |
| 20260507080043 | 6 | 95 | 1.6 | 12.9 | 0.00 | 0.00 | 0.00 | 98 | 1012.6 |
| 20260507074543 | 5 | 143 | 1.6 | 11.3 | 0.00 | 0.00 | 0.00 | 96 | 1012.7 |
| 20260507073054 | 6 | 111 | 4.8 | 14.5 | 0.00 | 0.00 | 0.00 | 96 | 1012.7 |
| 20260507071538 | 6 | 110 | 4.8 | 12.9 | 0.00 | 0.00 | 0.00 | 97 | 1013.2 |
| 20260507070055 | 6 | 81 | 3.2 | 16.1 | 0.00 | 0.00 | 0.00 | 96 | 1012.9 |
| 20260507064536 | 6 | 110 | 3.2 | 16.1 | 0.00 | 0.00 | 0.00 | 96 | 1013.2 |
| 20260507063034 | 6 | 114 | 4.8 | 17.7 | 0.00 | 0.00 | 0.00 | 95 | 1013.3 |
| 20260507061534 | 7 | 112 | 4.8 | 17.7 | 0.00 | 0.00 | 0.00 | 96 | 1013.5 |
| 20260507060033 | 6 | 114 | 9.7 | 20.9 | 0.00 | 0.00 | 0.00 | 94 | 1013.9 |
| 20260507054528 | 7 | 76 | 8.0 | 20.9 | 0.00 | 0.00 | 0.00 | 93 | 1013.6 |
| 20260507053027 | 7 | 46 | 11.3 | 19.3 | 0.00 | 0.00 | 0.00 | 93 | 1013.7 |
| 20260507051525 | 7 | 100 | 8.0 | 14.5 | 0.00 | 0.00 | 0.00 | 94 | 1013.9 |
| 20260507050031 | 6 | 96 | 1.6 | 17.7 | 0.00 | 0.00 | 0.00 | 92 | 1014.1 |
| 20260507044538 | 6 | 108 | 4.8 | 12.9 | 0.00 | 0.00 | 0.00 | 90 | 1014.3 |